EHI
0 0 0 0 0 0 0 0 0 0 0 0 0 0 0 0 0 1 1 1 1 2 5 10 16 18 17 16 15 12 8 5 4 2 1 2 2 2 2 2 1 2 3 3 3 2 1 0 0
0 0 0 0 0 0 0 0 0 0 0 0 0 0 0 0 0 2 2 2 3 5 7 11 16 19 18 16 14 10 5 3 3 3 2 2 2 1 1 1 0 1 2 4 4 3 1 0 0
0 0 0 0 0 0 0 0 0 0 0 0 0 0 0 0 0 1 2 4 7 8 10 13 16 19 20 18 15 9 4 1 2 4 4 3 3 2 1 1 1 0 2 4 5 3 1 0 0
0 0 0 0 0 0 0 0 0 0 0 0 0 0 0 0 0 2 4 7 8 9 11 14 18 20 21 21 17 11 5 3 2 3 5 6 6 4 2 2 2 1 2 5 5 3 2 1 0
0 0 0 0 0 0 0 0 0 0 0 0 0 0 0 0 2 4 6 7 8 10 11 14 18 20 21 21 18 12 7 5 3 3 4 7 8 6 4 4 3 2 3 4 3 2 2 1 0
0 0 0 0 0 0 0 0 0 0 0 0 0 0 0 0 2 4 4 4 6 9 12 15 18 19 19 18 16 12 7 6 5 3 3 6 8 8 7 6 4 3 4 3 1 1 1 1 0
0 0 0 0 0 0 0 0 0 0 0 0 0 0 0 0 2 3 4 4 6 10 12 14 16 15 13 12 11 9 6 5 5 4 3 4 6 6 7 7 5 4 4 3 1 1 1 0 0
0 0 0 0 0 0 0 0 0 0 0 0 0 0 0 0 3 6 8 7 7 9 10 12 12 11 7 6 6 5 3 3 3 3 1 1 2 4 5 6 6 5 4 2 1 1 0 0 0
0 0 0 0 0 0 0 0 0 0 0 0 0 0 0 2 5 8 9 8 7 7 7 8 10 8 5 3 4 3 1 1 2 1 0 0 0 1 3 4 4 4 4 2 0 0 0 0 0
0 0 0 0 0 0 0 0 0 0 0 0 0 0 1 3 5 7 7 7 6 5 5 7 9 8 4 3 3 2 1 0 0 0 0 0 0 0 1 1 1 2 2 1 0 0 0 0 0
0 0 0 0 0 0 0 0 0 0 0 0 0 1 2 3 4 5 5 5 6 5 4 5 7 7 4 2 2 2 1 0 0 0 0 0 0 0 0 0 0 1 1 0 0 0 0 0 0
0 0 0 0 0 0 0 0 0 0 0 0 0 1 3 3 3 4 4 4 5 4 3 4 5 4 2 1 1 1 0 0 0 0 0 0 0 0 0 0 0 0 0 0 0 0 0 0 0
0 0 0 0 0 0 0 0 0 0 0 0 0 2 3 3 3 3 3 3 3 3 3 3 3 2 0 0 0 0 0 0 0 0 0 0 0 0 0 0 0 0 0 0 0 0 0 0 0
0 0 0 0 0 0 0 0 0 0 0 0 0 1 2 3 3 3 3 2 1 1 2 2 2 1 0 0 0 0 0 0 0 0 0 0 0 0 0 1 1 0 0 0 0 0 0 0 0
0 0 0 0 0 0 0 0 0 0 0 0 0 0 1 1 2 2 2 1 0 0 1 1 1 0 0 0 0 0 0 0 0 0 0 0 0 0 0 1 2 1 0 0 0 0 0 0 0
0 0 0 0 0 0 0 0 0 0 0 0 0 0 0 0 1 1 1 0 0 0 0 0 0 0 0 0 0 0 0 0 0 0 0 0 0 0 0 1 1 1 0 0 0 0 0 0 0
0 0 0 0 0 0 0 0 0 0 0 0 0 0 0 0 0 0 0 0 0 0 0 0 0 0 0 0 0 0 0 0 0 0 0 0 0 0 0 0 0 0 0 0 0 0 0 0 0
0 0 0 0 0 0 0 0 0 0 0 0 0 0 0 0 0 0 0 0 0 0 0 0 0 0 0 0 0 0 0 0 0 0 0 0 0 0 0 0 0 0 0 0 0 0 0 0 0
0 0 0 0 0 0 0 0 0 0 0 0 0 0 0 0 0 0 0 0 0 0 0 0 0 0 0 0 0 0 0 0 0 0 0 0 0 0 0 0 0 0 0 0 0 0 0 0 0
0 0 0 0 0 0 0 0 0 0 0 0 0 0 0 0 0 0 0 0 0 0 0 0 0 0 0 0 0 0 0 0 0 0 0 0 0 0 0 0 0 0 0 0 0 0 0 0 0
0 0 0 0 0 0 0 0 0 0 0 0 0 0 0 0 0 0 0 0 0 0 0 0 0 0 0 0 0 0 0 0 0 0 0 0 0 0 0 0 0 0 0 0 0 0 0 0 0
0 0 0 0 0 0 0 0 0 0 0 0 0 0 0 0 0 0 0 0 0 0 0 0 0 0 0 0 0 0 0 0 0 0 0 0 0 0 0 0 0 0 0 0 0 0 0 0 0
0 0 0 0 0 0 0 0 0 0 0 0 0 0 0 0 0 0 0 0 0 0 0 0 0 0 0 0 0 0 0 0 0 0 0 0 0 0 0 0 0 0 0 0 0 0 0 0 0
0 0 0 0 0 0 0 0 0 0 0 0 0 0 0 0 0 0 0 0 0 0 0 0 0 0 0 0 0 0 0 0 0 0 0 0 0 0 0 0 0 0 0 0 0 0 0 0 0
0 0 0 0 0 0 0 0 0 0 0 0 0 0 0 0 0 0 0 0 0 0 0 0 0 0 0 0 0 0 0 0 0 0 0 0 0 0 0 0 0 0 0 0 0 0 0 0 0
0 0 0 0 0 0 0 0 0 0 0 0 0 0 0 0 0 0 0 0 0 0 0 0 0 0 0 0 0 0 0 0 0 0 0 0 0 0 0 0 0 0 0 0 0 0 0 0 0
0 0 0 0 0 0 0 0 0 0 0 0 0 0 0 0 0 0 0 0 0 0 0 0 0 0 0 0 0 0 0 0 0 0 0 0 0 0 0 0 0 0 0 0 0 0 0 0 0
0 0 0 0 0 0 0 0 0 0 0 0 0 0 0 0 0 0 0 0 0 0 0 0 0 0 0 0 0 0 0 0 0 0 0 0 0 0 0 0 0 0 0 0 0 0 0 0 0
0 0 0 0 0 0 0 0 0 0 0 0 0 0 0 0 0 0 0 0 0 0 0 0 0 0 0 0 0 0 0 0 0 0 0 0 0 0 0 0 0 0 0 0 0 0 0 0 0
0 0 0 0 0 0 0 0 0 0 0 0 0 0 0 0 0 0 0 0 0 0 0 0 0 0 0 0 0 0 0 0 0 0 0 0 0 0 0 0 0 0 0 0 0 0 0 0 0
Wind_Speed
7 4 2 4 6 4 3 5 3 1 1 1 1 4 5 3 3 4 2 7 9 8 7 8 9 9 9 9 10 9 9 9 9 10 10 10 10 10 11 11 11 10 11 11 11 11 11 11 11
3 2 5 5 5 2 5 5 4 5 3 1 2 3 3 1 2 5 4 6 10 9 7 7 8 9 9 9 9 9 9 9 9 9 9 10 10 10 10 10 10 10 10 10 10 11 10 10 10
4 1 4 4 4 6 6 4 6 5 3 1 1 2 3 3 3 4 5 9 9 7 6 7 9 9 9 9 8 8 8 8 8 9 8 9 10 10 10 10 9 9 9 10 10 10 10 9 9
3 4 4 3 5 5 5 4 3 1 1 1 3 2 1 1 3 5 8 9 9 7 6 7 9 10 9 9 8 8 8 9 9 9 9 9 10 10 10 10 9 9 9 9 10 10 9 8 8
4 4 3 1 5 4 4 4 2 1 1 0 3 2 0 2 4 8 8 9 9 7 5 6 9 10 9 9 8 8 8 9 9 10 9 9 10 10 10 10 10 9 9 10 10 10 9 8 8
4 4 3 4 5 3 4 4 2 2 2 1 3 3 2 1 5 6 6 7 8 7 6 6 8 8 9 9 8 8 8 8 9 9 9 9 9 10 10 10 10 10 10 9 9 9 9 8 8
4 4 4 4 4 4 4 3 3 3 3 4 5 4 2 1 3 5 6 6 6 6 6 5 5 5 7 8 8 8 8 9 8 9 9 8 8 9 10 9 10 10 10 9 8 8 8 8 8
4 4 3 4 4 5 3 2 2 4 5 2 5 7 5 5 4 6 6 6 5 5 5 4 4 4 4 5 7 8 8 9 8 8 8 7 7 8 9 8 9 9 9 9 8 8 8 7 7
4 3 5 6 5 4 2 1 2 1 2 1 2 5 5 7 7 7 5 4 4 4 3 4 4 4 4 4 6 6 7 8 7 6 8 6 4 5 5 6 8 8 9 8 8 7 7 6 6
4 4 8 5 4 3 2 2 2 1 1 1 1 0 4 7 8 8 7 6 5 5 4 4 5 4 4 4 3 3 3 4 4 4 4 4 3 3 5 6 7 7 7 7 7 7 6 5 3
5 7 4 4 4 2 2 3 2 3 5 6 6 6 7 7 7 8 7 7 6 6 5 5 6 5 4 3 3 2 2 2 3 4 4 4 4 3 3 3 3 3 5 3 4 4 3 3 2
4 5 5 4 3 3 4 3 3 6 8 6 8 9 9 9 8 9 8 7 6 6 5 5 6 5 4 4 3 3 3 2 3 4 5 4 3 3 3 2 3 2 2 2 2 2 3 3 3
6 5 5 6 5 5 5 6 5 8 8 5 5 8 10 10 8 7 7 7 7 6 6 5 6 6 5 4 4 4 3 3 3 3 4 5 4 4 4 3 3 3 2 3 2 2 3 3 3
5 6 7 7 7 6 7 8 6 10 5 5 7 9 9 10 9 7 7 7 7 7 7 5 6 6 6 5 4 4 3 3 3 3 4 6 5 4 4 4 3 3 3 3 3 3 3 3 3
3 4 6 7 7 5 3 8 10 10 4 6 8 9 9 9 9 9 9 8 8 8 7 7 6 6 6 6 5 4 3 4 3 3 4 6 6 5 5 4 4 3 3 3 3 3 3 3 4
1 3 6 6 6 6 6 12 9 6 5 8 9 8 8 8 9 8 8 7 7 7 7 7 6 5 5 5 5 4 3 4 3 3 3 5 6 6 5 5 4 3 3 3 3 3 3 3 3
3 5 7 5 5 5 7 10 8 5 6 8 9 9 8 7 7 7 8 8 8 8 8 7 6 6 6 5 4 4 4 4 3 4 3 4 6 6 5 5 4 4 4 3 3 3 3 3 3
7 6 6 7 5 6 8 11 9 5 7 9 9 8 8 9 9 7 7 8 7 7 7 7 6 6 5 5 4 3 3 3 3 3 4 5 5 6 5 4 5 5 4 3 3 4 3 3 3
5 6 8 7 4 5 10 13 13 8 7 8 8 8 9 9 7 6 7 7 7 7 7 7 7 7 6 5 5 4 3 3 3 3 5 4 5 6 6 5 5 5 4 3 4 4 4 3 3
7 8 8 6 4 5 8 13 12 9 9 10 11 10 10 8 6 6 6 7 8 8 8 8 8 8 7 5 4 3 4 3 2 3 4 4 5 6 6 6 5 5 5 4 4 4 3 2 1
12 11 8 6 3 3 4 10 9 7 7 8 9 10 10 11 11 9 8 8 8 9 9 8 8 8 7 6 5 4 3 3 2 3 3 3 5 6 6 6 5 5 5 5 4 4 4 3 1
13 9 8 6 3 5 3 7 9 6 7 9 10 9 10 10 10 9 9 9 9 8 8 8 8 7 7 7 7 8 6 5 4 4 3 4 5 5 6 6 6 5 4 5 4 3 3 4 2
8 5 7 7 6 5 4 5 10 3 7 9 10 10 10 10 10 10 9 9 8 7 7 7 7 7 7 7 8 8 6 4 3 4 5 4 4 4 5 5 5 5 4 5 4 3 3 3 3
5 2 2 2 2 8 9 7 10 6 9 7 8 9 10 10 9 8 7 7 6 6 6 7 7 6 7 7 7 8 8 7 7 7 6 4 3 3 4 5 4 4 4 5 4 3 4 3 3
5 5 2 3 5 9 6 7 11 7 7 9 9 9 9 9 9 8 8 8 8 7 7 7 8 7 7 7 7 7 8 8 9 8 7 6 4 3 4 4 4 4 4 4 4 3 3 3 3
10 10 8 7 7 4 3 9 9 5 5 5 5 6 7 7 8 9 9 9 9 9 9 8 8 7 7 8 7 6 7 6 5 6 6 6 4 4 4 4 4 4 4 4 3 3 2 2 2
7 9 5 3 2 3 6 6 7 2 2 1 2 3 5 6 7 8 8 8 8 9 9 9 9 7 7 8 8 7 7 6 6 6 5 4 4 4 4 4 4 3 3 4 4 2 2 2 2
6 6 4 5 5 5 5 5 5 3 3 2 3 4 5 5 5 6 7 8 7 7 7 8 8 8 7 7 7 7 7 7 6 6 6 6 5 4 5 5 4 4 3 3 3 3 2 3 2
5 5 4 4 4 4 4 6 4 5 5 5 5 5 5 5 6 6 6 6 6 6 6 7 7 7 6 7 7 7 7 6 6 6 6 5 5 5 5 5 5 4 4 3 3 3 3 3 2
5 6 6 5 5 4 3 6 3 1 1 2 2 2 3 3 3 4 5 5 5 6 6 6 7 7 7 7 6 7 6 6 6 5 5 5 5 5 5 5 5 4 4 4 4 4 4 4 4
Wind_Direction
339 342 60 59 60 62 219 238 225 234 219 224 168 119 125 134 160 172 145 137 131 136 139 137 134 132 131 129 127 128 131 131 128 127 124 122 122 122 120 117 115 112 109 109 108 104 103 103 102
342 1 56 65 103 171 244 236 224 229 214 187 81 94 92 85 93 115 127 143 135 137 137 136 135 134 131 132 131 132 137 137 133 131 129 126 124 122 121 120 119 116 111 111 109 107 104 104 103
338 58 86 90 154 190 211 219 214 243 241 183 68 70 113 139 129 147 160 146 134 135 137 139 136 137 135 133 134 138 140 143 138 134 133 132 130 125 120 118 120 118 114 112 112 110 108 105 102
51 50 61 104 218 220 205 217 197 196 317 68 111 74 45 121 161 154 146 142 135 134 136 143 140 139 138 138 139 140 143 142 141 139 136 135 133 130 125 117 115 118 116 116 116 113 111 106 100
67 82 88 232 237 242 237 244 227 208 229 148 109 120 334 346 114 130 140 140 137 138 139 142 142 143 143 143 143 140 141 141 143 143 140 139 137 133 127 122 118 116 120 120 119 116 114 109 101
66 82 130 224 238 242 251 245 230 234 240 196 125 129 203 117 115 134 136 138 139 142 142 141 143 146 148 148 147 146 145 143 144 143 140 139 138 136 130 123 121 120 117 121 121 119 115 110 101
118 127 189 213 224 237 236 232 198 212 228 214 158 139 195 201 153 139 133 130 132 138 141 141 147 147 148 150 151 150 148 145 142 139 135 133 134 134 131 127 124 122 119 115 118 118 116 109 97
138 132 207 219 213 235 233 227 217 192 224 208 148 157 193 206 163 128 123 128 130 135 142 145 142 145 148 148 150 152 147 144 141 134 130 128 128 131 126 126 126 123 120 117 111 111 114 107 94
112 117 214 216 203 229 239 258 286 238 183 170 197 189 191 161 139 128 122 124 137 144 152 152 147 149 150 153 154 152 148 145 139 136 133 130 136 137 130 127 125 124 121 118 113 107 104 101 92
131 193 220 215 203 214 260 250 256 292 262 242 295 265 148 151 149 150 155 160 164 170 175 168 159 162 158 154 144 148 151 148 147 145 143 143 141 137 132 127 126 124 118 116 110 102 92 86 83
179 206 217 238 240 235 256 267 248 196 242 223 202 189 168 167 167 168 175 177 178 179 180 176 171 168 162 151 152 150 146 152 156 157 151 141 134 130 123 126 122 119 113 111 105 97 86 82 89
204 227 216 229 227 232 238 240 255 225 235 230 201 183 174 180 185 181 184 185 179 176 185 181 173 169 166 156 160 157 155 158 166 167 158 146 137 138 141 136 133 126 126 114 100 104 96 85 81
227 242 230 237 246 246 250 246 247 253 256 241 207 188 189 190 193 193 187 184 178 177 181 184 178 174 169 160 164 160 165 166 164 162 162 154 141 149 150 145 138 131 122 122 112 104 101 89 82
224 238 254 251 248 249 244 257 240 253 253 228 202 202 205 199 192 190 185 188 187 183 181 181 180 178 167 163 165 164 167 162 156 156 163 154 144 150 150 144 140 135 130 125 121 115 104 94 92
232 258 273 249 232 231 223 263 237 242 236 228 217 210 210 212 199 195 191 189 188 183 180 182 181 178 172 165 166 162 164 155 156 154 159 155 150 149 151 146 143 140 132 122 110 99 94 94 89
206 230 255 252 210 209 186 254 254 224 213 230 226 219 213 216 208 201 197 186 181 176 177 182 179 174 176 166 161 158 158 152 154 150 148 158 153 150 147 142 141 136 125 120 120 115 104 91 87
218 228 238 261 214 191 195 247 256 219 210 232 229 221 214 213 216 208 196 185 178 177 175 177 172 170 171 158 148 148 147 149 154 149 143 154 149 149 148 143 138 129 121 122 130 120 119 109 91
211 218 231 232 224 193 219 248 261 239 220 234 233 223 216 211 214 208 195 183 176 173 170 168 168 166 159 148 134 130 128 143 152 152 148 144 146 143 140 136 132 127 120 117 125 120 104 113 112
208 220 238 245 220 204 233 252 260 248 233 238 236 221 215 217 212 199 190 176 168 167 165 167 169 166 157 156 157 154 159 155 148 151 143 142 147 145 138 137 133 133 129 131 133 125 113 97 105
232 241 249 269 243 224 250 261 260 243 229 226 224 217 213 210 201 203 191 177 174 176 175 175 173 169 168 170 164 153 144 142 148 144 137 144 155 148 142 142 143 140 129 126 131 127 120 110 103
231 228 232 244 301 281 282 281 260 249 233 236 227 215 208 201 197 197 191 188 181 181 181 182 177 171 168 161 147 132 115 107 124 145 145 146 151 142 140 141 140 141 139 147 148 140 136 143 126
237 225 219 228 230 259 210 273 269 245 248 237 228 214 208 203 195 192 189 187 187 185 179 180 174 168 167 160 161 159 157 160 172 163 145 138 142 139 139 140 140 144 142 147 157 147 141 141 150
227 207 214 221 216 249 229 241 273 242 243 241 225 212 204 198 192 190 189 186 181 175 173 174 166 165 168 167 168 163 157 153 144 140 135 140 135 137 142 144 145 147 146 153 156 148 143 145 153
201 161 204 206 190 242 218 207 265 223 221 232 224 209 198 191 188 185 180 171 167 165 165 164 160 163 168 166 168 165 159 152 147 146 149 150 139 137 143 144 146 151 153 160 161 154 153 157 154
174 153 188 220 219 241 190 206 248 236 226 214 216 209 196 189 182 176 173 170 170 170 169 166 164 165 167 162 164 164 159 156 156 154 156 152 147 147 157 149 151 154 158 158 151 151 162 163 164
200 185 184 199 211 246 198 225 251 250 241 224 210 194 178 181 183 180 179 175 175 176 172 168 170 169 168 165 166 160 155 155 153 151 152 155 158 156 154 147 148 149 152 155 150 149 162 158 167
185 208 195 162 190 220 237 261 289 295 288 237 185 162 175 182 180 180 177 173 174 175 174 173 172 170 171 170 162 157 152 151 153 149 144 147 148 145 146 146 148 147 152 155 149 151 160 157 171
185 169 153 179 189 225 244 236 240 251 250 233 189 182 189 179 170 169 173 172 172 170 170 171 172 172 171 170 168 162 158 156 156 152 154 155 152 149 151 153 157 157 158 158 151 152 157 157 169
171 179 179 184 198 188 224 252 229 213 212 206 203 192 181 176 171 167 166 166 160 157 163 165 166 164 163 165 164 157 156 154 152 154 158 159 155 156 162 165 167 169 168 165 162 168 166 169 176
188 185 169 187 219 205 207 259 306 266 230 187 183 168 150 146 147 147 146 144 149 156 162 166 167 165 162 155 150 152 150 150 152 157 160 160 160 162 167 167 170 176 176 177 178 183 185 186 190